ARABSAT-5A

Last updated on Sun Jun 21 2026 00:03:04 GMT+0000 (Coordinated Universal Time)

1 36745U 10032B 26171.32669471 .00000149 00000+0 00000+0 0 9998 2 36745 0.0575 42.1057 0005603 64.9875 309.5730 1.00268801 58675
UTC large
Height (km)
Speed (km/s)
/
Latitude / Longitude
Inclination (degrees)
Orbital Period (minutes)
Azimuth
Elevation
Range (km)
Doppler Factor

Next 0 passes for location: London (51.5072 / 0.1276)

No passes found over London.
ARABSAT-5A